Date String (YYYY-MM-DD hh:mm:ss) UTC,Instrument flags,absolute air pressure of the measurement (hPa),sample flow rate (lpm),inlet stack bypass flow (lpm),air temperature of the measurement (°C),ambient temperature measured by the external sensor (°C),aerosol sample conditioner tube jacket temperature (°C),OPC LED temperature (°C),internal box temperature (°C),relative humidity of the measurement (%),span deviation,mass concentration of particles derived from Lorenz-Mie calculation of OPC scattering (μg/m³),mass concentration of particles derived from Lorenz-Mie calculation of OPC scattering (μg/m³),mass concentration of particles derived from Lorenz-Mie calculation of OPC scattering (μg/m³)
DateTimeUTC,F1_M11,P_M11,Q1_M11,Q2_M11,T1_M11,T2_M11,T3_M11,T4_M11,T5_M11,U1_M11,ZSPAN_M11,X0_M11,X2_M11,X1_M11
2023-10-05 18:00:00,SystemResetWarning,0838.5,5.00,000.00,028.8,026.9,000.0,037.3,030.4,18.3,0000.0,0011.88,0004.00,0003.35
2023-10-05 18:01:00,SystemResetWarning,0838.4,5.00,000.00,028.8,027.1,000.0,037.3,030.5,18.2,0000.0,0011.71,0003.91,0003.30
2023-10-05 18:02:00,SystemResetWarning,0838.5,5.00,000.00,028.8,027.2,000.0,037.3,030.5,18.3,0000.0,0011.28,0003.88,0003.26
2023-10-05 18:03:00,SystemResetWarning,0838.5,5.00,000.00,028.9,027.4,000.0,037.3,030.5,18.1,0000.0,0010.65,0003.86,0003.23
2023-10-05 18:04:00,SystemResetWarning,0838.4,4.99,000.00,028.9,027.5,000.0,037.4,030.6,17.9,0000.0,0011.22,0003.87,0003.23
2023-10-05 18:05:00,SystemResetWarning,0838.4,4.99,000.00,028.9,027.6,000.0,037.4,030.6,18.0,0000.0,0011.96,0003.87,0003.23
2023-10-05 18:06:00,SystemResetWarning,0838.4,4.99,000.00,028.9,027.7,000.0,037.4,030.7,18.1,0000.0,0011.41,0003.86,0003.23
2023-10-05 18:07:00,SystemResetWarning,0838.4,4.99,000.00,029.0,027.7,000.0,037.4,030.7,18.0,0000.0,0011.29,0003.83,0003.22
2023-10-05 18:08:00,SystemResetWarning,0838.4,5.00,000.00,029.0,027.8,000.0,037.4,030.7,17.9,0000.0,0011.29,0003.81,0003.22
2023-10-05 18:09:00,SystemResetWarning,0838.4,5.00,000.00,029.0,027.9,000.0,037.4,030.7,18.0,0000.0,0011.53,0003.83,0003.21
2023-10-05 18:10:00,SystemResetWarning,0838.4,5.00,000.00,029.1,027.7,000.0,037.4,030.8,17.8,0000.0,0011.98,0003.84,0003.19
2023-10-05 18:11:00,SystemResetWarning,0838.4,5.00,000.00,029.0,026.0,000.0,037.4,030.7,17.7,0000.0,0012.40,0003.83,0003.19
2023-10-05 18:12:00,SystemResetWarning,0838.4,5.01,000.00,028.9,024.4,000.0,037.3,030.4,17.5,0000.0,0012.83,0003.84,0003.19
2023-10-05 18:13:00,SystemResetWarning,0838.3,5.02,000.00,028.8,024.3,000.0,037.2,030.2,17.4,0000.0,0012.24,0003.86,0003.20
2023-10-05 18:14:00,SystemResetWarning,0838.3,5.00,000.00,028.7,024.6,000.0,037.2,030.0,17.3,0000.0,0012.25,0003.85,0003.20
2023-10-05 18:15:00,SystemResetWarning,0838.3,5.00,000.00,028.6,025.0,000.0,037.2,030.0,17.2,0000.0,0011.22,0003.81,0003.21
2023-10-05 18:16:00,SystemResetWarning,0838.3,5.00,000.00,028.6,025.5,000.0,037.2,030.0,17.3,0000.0,0010.20,0003.79,0003.21
2023-10-05 18:17:00,SystemResetWarning,0838.3,5.00,000.00,028.6,025.8,000.0,037.2,030.1,17.4,0000.0,0010.67,0003.79,0003.21
2023-10-05 18:18:00,SystemResetWarning,0838.3,5.00,000.00,028.6,026.2,000.0,037.2,030.1,17.2,0000.0,0011.11,0003.80,0003.21
2023-10-05 18:19:00,SystemResetWarning,0838.2,5.00,000.00,028.6,026.4,000.0,037.2,030.2,17.1,0000.0,0011.63,0003.82,0003.21
2023-10-05 18:20:00,SystemResetWarning,0838.2,5.00,000.00,028.6,026.7,000.0,037.2,030.2,17.3,0000.0,0011.45,0003.79,0003.20
2023-10-05 18:21:00,SystemResetWarning,0838.2,5.00,000.00,028.6,026.9,000.0,037.1,030.3,17.1,0000.0,0011.26,0003.77,0003.19
2023-10-05 18:22:00,SystemResetWarning,0838.2,5.00,000.00,028.6,027.0,000.0,037.1,030.3,17.1,0000.0,0010.37,0003.75,0003.17
2023-10-05 18:23:00,SystemResetWarning,0838.2,5.00,000.00,028.6,027.2,000.0,037.1,030.3,17.4,0000.0,0010.38,0003.74,0003.16
2023-10-05 18:24:00,SystemResetWarning,0838.2,5.00,000.00,028.7,027.3,000.0,037.1,030.4,17.4,0000.0,0010.45,0003.72,0003.16
2023-10-05 18:25:00,SystemResetWarning,0838.2,5.00,000.00,028.7,027.4,000.0,037.1,030.4,17.4,0000.0,0010.42,0003.75,0003.17
2023-10-05 18:26:00,SystemResetWarning,0838.2,5.00,000.00,028.7,027.5,000.0,037.2,030.5,17.5,0000.0,0010.48,0003.77,0003.19
2023-10-05 18:27:00,SystemResetWarning,0838.1,5.00,000.00,028.8,027.5,000.0,037.2,030.5,17.4,0000.0,0010.41,0003.81,0003.22
2023-10-05 18:28:00,SystemResetWarning,0838.1,5.00,000.00,028.8,027.6,000.0,037.2,030.5,17.2,0000.0,0010.74,0003.87,0003.24
2023-10-05 18:29:00,SystemResetWarning,0838.2,4.99,000.00,028.8,027.6,000.0,037.2,030.5,17.3,0000.0,0010.49,0003.88,0003.23
2023-10-05 18:30:00,SystemResetWarning,0838.2,4.99,000.00,028.9,027.7,000.0,037.2,030.6,17.3,0000.0,0011.03,0003.90,0003.26
2023-10-05 18:31:00,SystemResetWarning,0838.2,5.01,000.00,028.9,027.7,000.0,037.2,030.6,17.3,0000.0,0010.79,0003.94,0003.30
2023-10-05 18:32:00,SystemResetWarning,0838.1,5.01,000.00,028.9,027.5,000.0,037.3,030.6,17.3,0000.0,0010.75,0004.00,0003.35
2023-10-05 18:33:00,SystemResetWarning,0838.0,4.99,000.00,028.8,025.9,000.0,037.2,030.5,17.3,0000.0,0010.61,0004.08,0003.41
2023-10-05 18:34:00,SystemResetWarning,0837.9,5.01,000.00,028.8,025.2,000.0,037.1,030.3,17.4,0000.0,0011.26,0004.17,0003.46
2023-10-05 18:35:00,SystemResetWarning,0838.0,5.01,000.00,028.7,025.3,000.0,037.1,030.2,17.7,0000.0,0011.18,0004.21,0003.51
2023-10-05 18:36:00,SystemResetWarning,0838.0,5.00,000.00,028.6,025.6,000.0,037.1,030.1,17.7,0000.0,0012.24,0004.23,0003.52
2023-10-05 18:37:00,SystemResetWarning,0838.0,5.00,000.00,028.6,025.9,000.0,037.1,030.2,18.0,0000.0,0013.14,0004.25,0003.53
2023-10-05 18:38:00,SystemResetWarning,0838.0,5.00,000.00,028.6,026.2,000.0,037.1,030.2,17.9,0000.0,0013.10,0004.25,0003.54
2023-10-05 18:39:00,SystemResetWarning,0838.0,5.00,000.00,028.6,026.5,000.0,037.1,030.2,17.5,0000.0,0012.64,0004.22,0003.53
2023-10-05 18:40:00,SystemResetWarning,0837.9,5.00,000.00,028.6,026.7,000.0,037.1,030.3,17.5,0000.0,0012.15,0004.20,0003.54
2023-10-05 18:41:00,SystemResetWarning,0837.9,5.00,000.00,028.6,026.9,000.0,037.1,030.3,17.7,0000.0,0011.32,0004.19,0003.54
2023-10-05 18:42:00,SystemResetWarning,0837.9,5.00,000.00,028.7,027.1,000.0,037.1,030.3,17.8,0000.0,0011.16,0004.13,0003.51
2023-10-05 18:43:00,SystemResetWarning,0837.9,5.00,000.00,028.7,027.2,000.0,037.1,030.4,17.8,0000.0,0011.93,0004.08,0003.47
2023-10-05 18:44:00,SystemResetWarning,0837.9,5.00,000.00,028.7,027.3,000.0,037.1,030.4,17.7,0000.0,0012.22,0004.04,0003.44
2023-10-05 18:45:00,SystemResetWarning,0837.8,5.00,000.00,028.7,027.4,000.0,037.2,030.4,17.8,0000.0,0011.80,0003.92,0003.38
2023-10-05 18:46:00,SystemResetWarning,0837.8,5.00,000.00,028.8,027.5,000.0,037.2,030.5,17.7,0000.0,0011.34,0003.85,0003.32
2023-10-05 18:47:00,SystemResetWarning,0837.8,5.00,000.00,028.8,027.5,000.0,037.2,030.5,17.6,0000.0,0010.70,0003.81,0003.27
2023-10-05 18:48:00,SystemResetWarning,0837.8,5.00,000.00,028.8,027.6,000.0,037.2,030.5,17.4,0000.0,0009.98,0003.76,0003.23
2023-10-05 18:49:00,SystemResetWarning,0837.8,4.99,000.00,028.8,027.7,000.0,037.2,030.6,17.6,0000.0,0010.04,0003.74,0003.18
2023-10-05 18:50:00,SystemResetWarning,0837.7,4.99,000.00,028.9,027.5,000.0,037.2,030.6,17.3,0000.0,0010.73,0003.72,0003.16
2023-10-05 18:51:00,SystemResetWarning,0837.8,5.00,000.00,028.8,025.9,000.0,037.2,030.5,17.1,0000.0,0010.94,0003.69,0003.14
2023-10-05 18:52:00,SystemResetWarning,0837.8,5.00,000.00,028.8,025.1,000.0,037.1,030.3,17.3,0000.0,0011.28,0003.66,0003.13
2023-10-05 18:53:00,SystemResetWarning,0837.7,5.01,000.00,028.7,025.1,000.0,037.1,030.2,17.3,0000.0,0011.15,0003.67,0003.12
2023-10-05 18:54:00,SystemResetWarning,0837.7,5.01,000.00,028.6,025.4,000.0,037.1,030.1,17.6,0000.0,0010.53,0003.66,0003.11
2023-10-05 18:55:00,SystemResetWarning,0837.7,4.99,000.00,028.6,025.8,000.0,037.1,030.1,17.7,0000.0,0009.82,0003.64,0003.11
2023-10-05 18:56:00,SystemResetWarning,0837.6,5.00,000.00,028.6,026.1,000.0,037.1,030.1,17.8,0000.0,0009.47,0003.68,0003.13
2023-10-05 18:57:00,SystemResetWarning,0837.6,4.99,000.00,028.6,026.4,000.0,037.1,030.2,18.1,0000.0,0009.47,0003.71,0003.14
2023-10-05 18:58:00,SystemResetWarning,0837.6,5.00,000.00,028.6,026.7,000.0,037.1,030.2,18.0,0000.0,0008.97,0003.71,0003.16
2023-10-05 18:59:00,SystemResetWarning,0837.6,5.00,000.00,028.6,026.9,000.0,037.1,030.3,18.0,0000.0,0008.56,0003.69,0003.17
